Weather History for KGON - March, 2013

Change the Weather History Date:

Friday, March 8, 2013

  Actual Average Record
Temperature  
Mean Temperature 34 °F -  
Max Temperature 37 °F - - ()
Min Temperature 30 °F - - ()
Degree Days  
Heating Degree Days 32    
Moisture  
Dew Point 28 °F    
Average Humidity 85    
Maximum Humidity 93    
Minimum Humidity 53    
Precipitation  
Precipitation 0.00 in - - ()
Sea Level Pressure  
Sea Level Pressure 29.94 in    
Wind  
Wind Speed 16 mph (North)    
Max Wind Speed 25 mph    
Max Gust Speed 34 mph    
Visibility 3 miles    
Events Fog , Snow    
T = Trace of Precipitation, MM = Missing Value Source: NWS Daily Summary

Daily Weather History Graph

Daily Weather History Graph

Search for Another Location

Airport or City:

Trip Planner

Search our weather history database for the weather conditions in past years. The results will help you decide how hot, cold, wet, or windy it might be!

Date:

Astronomy

Mar. 08, 2013 Rise Set
Actual Time 6:11 AM EST 5:47 PM EST
Civil Twilight 5:43 AM EST 6:14 PM EST
Nautical Twilight 5:11 AM EST 6:46 PM EST
Astronomical Twilight 4:39 AM EST 7:19 PM EST
Moon 3:55 AM EST (3/8) 2:37 PM EST (3/8)
Length of Visible Light 12h 31m
Length of Day
11h 36m
Waning Crescent, 12% of the Moon is Illuminated
Mar 8
Waning Crescent
Mar 11
New
Mar 19
First Quarter
Mar 27
Full
Apr 3
Last Quarter

Hourly Weather History & Observations

Time (EST) Temp. Windchill Dew Point Humidity Pressure Visibility Wind Dir Wind Speed Gust Speed Precip Events Conditions
12:13 AM 32.0 °F 21.6 °F 28.4 °F 87% 29.93 in 1.0 mi North 15.0 mph 24.2 mph 0.00 in Snow Light Snow
12:22 AM 32.0 °F 22.5 °F 28.4 °F 87% 29.93 in 1.2 mi North 12.7 mph 23.0 mph 0.00 in Snow Light Snow
12:56 AM 32.0 °F 21.6 °F 28.0 °F 85% 29.93 in 1.2 mi North 15.0 mph - 0.00 in Snow Light Snow
1:56 AM 30.9 °F 20.2 °F 28.0 °F 89% 29.91 in 1.8 mi North 15.0 mph - 0.00 in Snow Light Snow
2:40 AM 32.0 °F 21.6 °F 28.4 °F 87% 29.91 in 2.0 mi North 15.0 mph 21.9 mph 0.00 in Snow Light Snow
2:52 AM 32.0 °F 22.1 °F 28.4 °F 87% 29.91 in 2.5 mi North 13.8 mph 23.0 mph 0.00 in Snow Light Snow
2:56 AM 32.0 °F 21.2 °F 28.0 °F 85% 29.91 in 3.0 mi North 16.1 mph 23.0 mph 0.00 in Snow Light Snow
3:18 AM 32.0 °F 21.6 °F 28.4 °F 87% 29.91 in 2.5 mi North 15.0 mph 23.0 mph 0.00 in Snow Light Snow
3:25 AM 32.0 °F 21.2 °F 26.6 °F 80% 29.90 in 4.0 mi North 16.1 mph 24.2 mph 0.00 in Snow Light Snow
3:56 AM 32.0 °F 21.6 °F 28.0 °F 85% 29.91 in 2.0 mi North 15.0 mph 21.9 mph 0.00 in Snow Light Snow
4:04 AM 30.2 °F 19.3 °F 28.4 °F 93% 29.91 in 1.5 mi North 15.0 mph - 0.00 in Snow Light Snow
4:35 AM 30.2 °F 19.3 °F 28.4 °F 93% 29.91 in 1.0 mi North 15.0 mph 19.6 mph 0.00 in Snow Light Snow
4:44 AM 30.2 °F 20.2 °F 28.4 °F 93% 29.91 in 0.8 mi North 12.7 mph - 0.00 in Snow Light Snow
4:56 AM 30.9 °F 20.7 °F 28.9 °F 92% 29.91 in 1.2 mi North 13.8 mph 21.9 mph 0.00 in Snow Light Snow
5:27 AM 30.2 °F 20.2 °F 28.4 °F 93% 29.90 in 0.8 mi North 12.7 mph - 0.00 in Snow Light Snow
5:34 AM 30.2 °F 19.8 °F 28.4 °F 93% 29.91 in 0.8 mi North 13.8 mph - 0.00 in Snow Light Snow
5:56 AM 30.9 °F 19.8 °F 28.9 °F 92% 29.91 in 0.8 mi North 16.1 mph - 0.00 in Snow Light Snow
6:29 AM 30.2 °F 19.3 °F 28.4 °F 93% 29.90 in 0.2 mi North 15.0 mph 23.0 mph 0.00 in Fog , Snow Snow
6:47 AM 30.2 °F 18.5 °F 28.4 °F 93% 29.91 in 0.5 mi North 17.3 mph 23.0 mph 0.00 in Fog , Snow Light Snow
6:56 AM 30.9 °F 19.4 °F 28.0 °F 89% 29.91 in 0.5 mi North 17.3 mph 23.0 mph 0.00 in Fog , Snow Light Snow
7:05 AM 30.2 °F 19.3 °F 28.4 °F 93% 29.91 in 1.0 mi North 15.0 mph 21.9 mph 0.00 in Snow Light Snow
7:26 AM 30.2 °F 20.2 °F 28.4 °F 93% 29.91 in 0.8 mi North 12.7 mph 21.9 mph 0.00 in Snow Light Snow
7:56 AM 32.0 °F 21.2 °F 28.0 °F 85% 29.92 in 0.8 mi North 16.1 mph - 0.00 in Snow Light Snow
8:11 AM 32.0 °F 21.2 °F 28.4 °F 87% 29.92 in 1.0 mi North 16.1 mph - 0.00 in Snow Light Snow
8:31 AM 32.0 °F 22.5 °F 28.4 °F 87% 29.92 in 0.8 mi North 12.7 mph 24.2 mph 0.00 in Snow Light Snow
8:56 AM 32.0 °F 22.1 °F 28.9 °F 88% 29.92 in 0.5 mi North 13.8 mph 23.0 mph 0.00 in Fog , Snow Snow
9:16 AM 32.0 °F 22.1 °F 28.4 °F 87% 29.92 in 0.5 mi North 13.8 mph - 0.00 in Fog , Snow Light Snow
9:24 AM 32.0 °F 20.5 °F 28.4 °F 87% 29.92 in 0.8 mi North 18.4 mph 24.2 mph 0.00 in Snow Light Snow
9:35 AM 32.0 °F 20.5 °F 28.4 °F 87% 29.92 in 1.0 mi North 18.4 mph 23.0 mph 0.00 in Snow Light Snow
9:45 AM 32.0 °F 22.1 °F 28.4 °F 87% 29.92 in 0.5 mi North 13.8 mph 28.8 mph 0.00 in Fog , Snow Snow
9:56 AM 32.0 °F 21.2 °F 28.9 °F 88% 29.93 in 0.5 mi North 16.1 mph 24.2 mph 0.00 in Fog , Snow Snow
10:25 AM 32.0 °F 20.8 °F 28.4 °F 87% 29.93 in 0.2 mi North 17.3 mph 20.7 mph 0.00 in Fog , Snow Snow
10:39 AM 30.2 °F 17.8 °F 28.4 °F 93% 29.93 in 0.2 mi North 19.6 mph - 0.00 in Fog , Snow Snow
10:52 AM 32.0 °F 22.1 °F 28.4 °F 87% 29.93 in 0.5 mi North 13.8 mph 24.2 mph 0.00 in Fog , Snow Snow
10:56 AM 32.0 °F 21.2 °F 28.9 °F 88% 29.94 in 0.5 mi North 16.1 mph 25.3 mph 0.00 in Fog , Snow Snow
11:07 AM 32.0 °F 21.6 °F 28.4 °F 87% 29.94 in 0.2 mi North 15.0 mph 19.6 mph 0.00 in Fog , Snow Snow
11:14 AM 32.0 °F 21.2 °F 28.4 °F 87% 29.94 in 0.5 mi North 16.1 mph - 0.00 in Fog , Snow Snow
11:43 AM 32.0 °F 21.6 °F 28.4 °F 87% 29.94 in 1.0 mi North 15.0 mph 23.0 mph 0.00 in Snow Light Snow
11:56 AM 32.0 °F 22.1 °F 28.0 °F 85% 29.95 in 1.5 mi North 13.8 mph - 0.00 in Snow Light Snow
12:09 PM 32.0 °F 20.5 °F 28.4 °F 87% 29.94 in 0.8 mi North 18.4 mph 26.5 mph 0.00 in Snow Light Snow
12:25 PM 32.0 °F 21.6 °F 28.4 °F 87% 29.94 in 0.5 mi North 15.0 mph 21.9 mph 0.00 in Fog , Snow Snow
12:32 PM 32.0 °F 21.2 °F 28.4 °F 87% 29.94 in 1.0 mi North 16.1 mph 24.2 mph 0.00 in Snow Light Snow
12:52 PM 32.0 °F 20.5 °F 28.4 °F 87% 29.94 in 0.5 mi North 18.4 mph 23.0 mph 0.00 in Fog , Snow Snow
12:56 PM 32.0 °F 22.5 °F 28.9 °F 88% 29.95 in 0.5 mi North 12.7 mph 24.2 mph 0.00 in Fog , Snow Snow
1:07 PM 32.0 °F 21.6 °F 28.4 °F 87% 29.94 in 0.5 mi North 15.0 mph 25.3 mph 0.00 in Fog , Snow Snow
1:31 PM 32.0 °F 20.8 °F 28.4 °F 87% 29.94 in 0.8 mi North 17.3 mph 28.8 mph 0.00 in Snow Light Snow
1:43 PM 33.8 °F 22.5 °F 28.4 °F 81% 29.95 in 1.0 mi North 19.6 mph 26.5 mph 0.00 in Snow Light Snow
1:56 PM 33.1 °F 22.6 °F 28.9 °F 85% 29.95 in 1.5 mi North 16.1 mph 28.8 mph 0.00 in Snow Light Snow
2:08 PM 33.8 °F 23.2 °F 28.4 °F 81% 29.95 in 2.5 mi North 17.3 mph 25.3 mph 0.00 in Snow Light Snow
2:15 PM 33.8 °F 22.5 °F 28.4 °F 81% 29.95 in 4.0 mi North 19.6 mph 27.6 mph 0.00 in Snow Light Snow
2:35 PM 33.8 °F 22.8 °F 28.4 °F 81% 29.95 in 5.0 mi North 18.4 mph 26.5 mph 0.00 in   Haze
2:47 PM 33.8 °F 22.5 °F 28.4 °F 81% 29.95 in 4.0 mi North 19.6 mph 26.5 mph 0.00 in   Haze
2:56 PM 34.0 °F 22.4 °F 30.9 °F 89% 29.96 in 5.0 mi North 20.7 mph 29.9 mph 0.00 in   Overcast
3:26 PM 35.6 °F 24.2 °F 30.2 °F 81% 29.97 in 6.0 mi North 21.9 mph 29.9 mph N/A   Haze
3:56 PM 35.1 °F 24.5 °F 30.0 °F 82% 29.98 in 8.0 mi North 18.4 mph 32.2 mph N/A   Overcast
4:22 PM 35.6 °F 24.8 °F 30.2 °F 81% 29.98 in 10.0 mi North 19.6 mph 28.8 mph N/A   Overcast
4:56 PM 36.0 °F 24.4 °F 30.0 °F 79% 29.99 in 9.0 mi North 23.0 mph 31.1 mph N/A   Overcast
5:56 PM 36.0 °F 23.9 °F 30.9 °F 82% 30.02 in 10.0 mi North 25.3 mph 34.5 mph N/A   Overcast
6:56 PM 37.0 °F 26.4 °F 28.9 °F 73% 30.05 in 10.0 mi NNE 20.7 mph 31.1 mph N/A   Overcast
7:56 PM 37.9 °F 29.2 °F 28.0 °F 68% 30.06 in 10.0 mi North 15.0 mph 24.2 mph N/A   Mostly Cloudy
8:56 PM 37.9 °F 30.0 °F 27.0 °F 65% 30.08 in 10.0 mi North 12.7 mph - N/A   Partly Cloudy
9:56 PM 37.9 °F 30.0 °F 26.1 °F 62% 30.08 in 10.0 mi North 12.7 mph - N/A   Clear
10:56 PM 37.9 °F 29.2 °F 23.0 °F 55% 30.08 in 10.0 mi North 15.0 mph 24.2 mph N/A   Clear
11:56 PM 37.9 °F 28.5 °F 21.9 °F 53% 30.09 in 10.0 mi North 17.3 mph - N/A   Clear